User: anonymous   Login
Location: Azul
(36.7830°S, 59.8500°W)
Time: 09:38:41
(UTC-03:00)
Language:

XW-2F - Orbit

View from above orbital plane
View from above orbital plane
View from above satellite
View from above satellite

Ground track
Ground track

The orbit data is extracted from the following two-line orbital elements,

1 40910U 15049M   21295.16059661  .00002900  00000-0  13904-3 0  9997
2 40910  97.4746 299.0851 0015794  88.5797 336.4643 15.19600873336963
Epoch (UTC): 22 October 2021 03:51:15
Eccentricity: 0.0015794
inclination: 97.4746°
perigee height: 496 km
apogee height: 518 km
right ascension of ascending node: 299.0851°
argument of perigee: 88.5797°
revolutions per day: 15.19600873
mean anomaly at epoch: 336.4643°
orbit number at epoch: 33696

The dashed part of the orbit path shows where the satellite is in the earth's shadow,  

DLR